Terug naar catalogus

COSMOS 648

ActiefMilitairLEO
NORAD 7272·PAYLOAD·🇷🇺 Russia

Gelanceerd Apr 23, 1974 vanaf Plesetsk Cosmodrome

Loading…

Volgende Passages (komende 24 uur)

TLE

VersSource: Space-Track

Epoch: Sep 14, 2026, 12:03 UTC

1 07272U 74024H   26257.50266503  .00000007  00000-0  15267-3 0  9995
2 07272  74.0193 172.9872 0033230 193.3785 279.0016 12.50377684391569

Volg COSMOS 648 in realtime met AllMySat

Download on the App Store